User: anonymous
Location: Fort Wayne
(41.1310°N, 85.1290°W)
Time: 15:52:58
(UTC-04:00)
Language:

COSMOS 2428 - Orbit

View from above orbital plane
View from above orbital plane
View from above satellite
View from above satellite

Ground track
Ground track

The orbit data is extracted from the following two-line orbital elements,

1 31792U 07029A   14262.38001971  .00000283  00000-0  17890-3 0    42
2 31792 070.9702 352.1812 0008615 326.4618 150.5735 14.12422777372613
Epoch (UTC): 19 September 2014 09:07:13
Eccentricity: 0.0008615
inclination: 70.9702°
perigee height: 845 km
apogee height: 857 km
right ascension of ascending node: 352.1812°
argument of perigee: 326.4618°
revolutions per day: 14.12422777
mean anomaly at epoch: 150.5735°
orbit number at epoch: 37261

The dashed part of the orbit path shows where the satellite is in the earth's shadow,  

DLR